SCP
0 0 0 0 0 0 0 0 0 0 0 0 0 0 0 0 0 0 0 0 0 0 0 0 0 1 1 2 2 3 4 5 4 3 3 3 2 3 2 2 2 2 3 2
0 0 0 0 0 0 0 0 0 0 0 0 0 0 0 0 0 0 0 0 0 0 0 0 0 2 2 2 1 2 2 3 3 3 3 2 2 1 1 1 2 2 2 2
0 0 0 0 0 0 0 0 0 0 0 0 0 0 0 0 -0 0 0 -0 0 0 0 0 0 2 1 1 1 1 1 2 2 2 1 3 2 2 2 2 2 2 2 1
0 0 0 0 0 0 0 0 0 0 0 0 0 0 0 0 0 0 0 0 0 0 0 0 0 2 1 0 0 1 1 1 1 2 2 2 2 1 1 1 2 2 1 1
0 0 0 0 0 0 0 0 0 0 0 0 0 0 -0 0 0 0 0 0 0 0 0 0 1 1 1 0 0 1 1 1 1 2 1 1 1 1 1 1 2 1 1 1
0 0 0 0 0 0 0 0 0 0 0 0 0 0 0 -0 0 0 0 0 0 0 0 0 1 0 0 0 0 0 0 1 1 1 1 1 1 2 2 1 1 1 1 0
0 0 0 0 0 0 0 0 0 0 0 0 0 0 0 -0 0 0 0 0 -0 0 0 1 -0 0 0 0 0 0 0 1 1 1 1 1 1 1 1 1 1 0 1 0
0 0 0 0 0 0 0 0 0 0 0 0 0 -0 -0 0 0 0 0 0 0 0 0 -0 0 0 0 0 0 0 0 1 0 0 0 1 1 0 0 1 0 0 0 0
0 0 0 0 0 0 0 0 0 0 0 0 0 0 0 -0 0 0 0 0 -0 0 -0 0 0 0 0 -0 0 0 0 0 0 0 0 0 0 0 0 0 0 0 0 0
-0 0 0 0 0 0 0 0 0 0 0 0 0 0 -0 0 0 0 0 -0 -0 0 -0 0 0 0 -0 0 0 0 0 0 0 0 0 0 0 0 0 0 0 0 0 -0
-0 0 0 0 0 0 0 0 0 0 0 0 0 0 0 0 0 0 0 0 0 -0 0 0 0 0 -0 0 0 0 0 0 0 0 0 0 0 0 0 0 0 0 0 -0
0 0 0 0 0 0 0 0 0 0 0 0 0 0 0 0 0 0 0 0 -0 0 0 0 -0 -0 -0 -0 0 0 0 0 0 0 0 0 0 0 0 -0 0 0 0 0
0 0 0 0 0 0 0 0 0 0 0 0 0 0 0 0 0 0 0 0 0 -0 -0 -0 -0 -0 -0 -0 0 0 0 0 0 0 0 0 0 0 -0 -0 0 0 0 0
-0 0 0 0 0 0 0 0 0 0 0 0 0 0 0 0 0 0 0 0 0 0 0 -0 -0 -0 -0 -0 0 0 0 -0 0 0 0 0 0 0 0 0 0 0 -0 0
-0 -0 0 -0 -0 0 0 0 0 -0 0 0 0 0 -0 0 0 0 0 0 0 0 -0 -0 -0 -0 -0 -0 -0 -0 -0 -0 0 0 0 0 0 0 0 0 0 0 0 -0
-0 0 0 -0 -0 0 0 0 0 0 0 -0 0 0 0 0 0 0 0 0 0 0 -0 -0 -0 -0 -0 -0 -0 -0 -0 -0 -0 0 -0 -0 0 0 0 0 -0 0 0 -0
-0 0 -0 -0 -0 -0 0 0 0 0 0 0 0 0 0 0 0 0 0 0 0 0 -0 -0 -0 -0 -0 -0 -0 -0 -0 -0 -0 -0 -0 -0 -0 -0 -0 -0 -0 -0 0 -0
-0 0 0 -0 -0 0 0 0 0 0 0 0 0 0 0 0 0 0 0 0 0 0 0 -0 -0 -0 -0 -0 -0 -0 -0 -0 -0 -0 -0 -0 -0 -0 -0 -0 -0 -0 -0 -0
0 0 -0 -0 -0 0 0 0 0 0 0 0 0 0 0 0 0 0 0 1 0 0 0 0 -0 -0 -0 -0 -0 -0 -0 -0 -0 -0 -0 -0 -0 -0 0 0 -0 -0 -0 -0
-0 0 -0 -0 -0 0 0 1 1 0 1 0 0 0 0 0 0 0 0 0 1 1 0 0 -0 -0 -0 -0 -0 -0 -0 -0 -0 -0 -0 -0 -0 -0 0 0 0 0 0 0
0 0 0 -0 -0 0 0 0 0 0 0 0 0 0 0 0 0 0 0 0 1 1 0 0 -0 -0 -0 -0 -0 -0 -0 -0 -0 -0 -0 -0 -0 -0 -0 0 0 0 0 0
0 0 0 -0 -0 -0 0 0 1 0 0 0 0 0 0 0 0 0 0 0 1 0 0 0 -0 -0 -0 -0 -0 -0 -0 -0 -0 -0 -0 -0 -0 -0 -0 -0 0 0 0 0
0 0 0 0 -0 0 0 0 0 0 0 0 0 0 0 0 0 0 0 0 1 1 1 0 -0 -0 -0 -0 -0 -0 -0 -0 -0 -0 -0 -0 -0 -0 -0 -0 0 0 0 0
0 0 0 0 0 -0 0 0 0 0 0 0 0 0 0 0 0 0 0 0 0 0 0 0 0 -0 -0 -0 -0 -0 -0 -0 -0 -0 -0 -0 -0 -0 0 0 0 0 0 0
0 0 0 -0 -0 0 0 0 0 0 0 0 0 0 0 0 0 0 1 0 0 0 0 0 0 -0 -0 -0 -0 -0 -0 -0 -0 -0 -0 -0 0 0 0 -0 0 0 0 0
0 0 0 0 0 0 0 0 0 0 0 0 0 0 0 0 0 0 1 1 1 1 1 1 0 0 -0 -0 -0 -0 -0 -0 -0 -0 -0 0 0 0 0 0 0 -0 0 0
Wind_Speed_500mb
53 33 48 81 61 59 55 62 66 58 55 57 51 51 57 48 53 52 56 47 58 74 65 51 48 63 35 41 48 50 46 54 58 47 43 44 44 44 40 33 29 30 33 36
38 56 76 44 64 62 67 63 61 58 55 48 46 53 52 45 44 52 51 52 52 64 52 44 45 35 32 34 35 37 41 47 52 46 43 41 41 28 27 27 29 32 32 35
46 75 45 58 60 60 62 62 56 62 50 54 47 51 49 49 55 54 55 64 50 51 66 80 50 31 32 26 26 27 34 46 48 44 41 33 33 23 33 33 25 34 35 32
48 52 63 60 67 60 59 57 57 56 46 40 38 38 49 39 43 40 50 50 52 52 71 65 41 37 29 23 24 30 40 40 44 37 38 41 33 29 24 19 20 16 16 32
67 44 54 63 73 59 69 43 53 55 50 42 47 29 57 34 35 32 26 40 50 54 55 31 38 39 28 28 30 35 37 45 38 46 34 35 29 21 12 13 19 28 34 33
57 66 57 58 53 65 52 51 57 52 38 37 53 38 59 37 37 34 33 48 51 42 43 46 42 40 38 33 37 37 41 41 45 44 30 26 22 17 17 15 16 22 30 20
47 55 62 57 58 57 61 45 33 37 34 43 33 38 47 42 37 36 36 39 43 36 43 58 53 46 43 43 42 43 49 43 39 32 28 26 22 25 20 15 19 22 17 13
27 38 56 48 66 54 57 50 32 51 35 38 43 53 40 42 43 50 40 28 35 49 44 52 47 48 48 48 46 45 45 36 34 29 22 18 13 3 3 17 16 11 10 7
15 31 55 59 58 56 59 56 63 45 43 37 32 35 60 54 40 29 14 31 41 44 48 46 47 50 53 51 49 47 40 35 33 27 22 16 9 9 3 13 13 8 2 6
10 28 46 54 57 66 63 43 50 38 51 48 39 45 27 23 29 25 26 18 34 50 50 47 51 53 53 51 48 42 38 36 32 26 19 15 8 6 9 13 6 4 14 12
17 17 37 45 51 55 47 51 47 43 36 32 29 27 25 5 19 12 19 35 37 52 50 54 53 53 51 49 45 43 37 33 30 25 18 15 8 8 8 12 6 8 22 10
30 13 32 46 41 42 57 50 49 39 49 33 26 29 11 5 9 11 21 43 58 53 53 56 56 54 51 48 44 40 37 33 29 25 19 15 8 12 4 2 2 10 21 19
12 12 22 37 35 40 39 56 49 41 22 38 33 31 14 12 15 22 21 42 60 58 57 57 57 54 51 47 42 38 35 33 28 25 21 14 12 8 5 8 7 16 25 21
6 14 30 21 14 30 16 47 62 52 34 38 39 18 11 15 16 9 34 57 56 57 61 59 57 55 50 47 41 38 34 31 29 26 21 15 10 9 9 9 10 16 30 23
4 16 35 41 26 30 42 58 58 58 48 43 37 36 27 25 21 26 30 47 51 55 58 58 57 55 51 46 42 37 35 32 29 26 25 15 8 15 12 13 15 16 27 23
9 9 31 29 29 20 45 61 51 58 53 53 43 28 22 23 35 33 30 39 47 54 55 57 54 53 51 47 43 40 37 34 29 27 23 15 19 19 14 14 14 16 18 27
30 11 16 17 11 15 36 47 43 44 50 52 34 12 37 16 16 22 34 41 45 52 54 55 52 51 49 46 44 43 39 34 32 29 26 19 18 16 18 16 12 18 15 13
27 23 11 5 16 9 29 30 41 45 36 46 22 5 23 31 23 47 18 46 48 52 52 53 52 51 50 45 45 42 40 36 33 31 29 21 22 16 20 19 13 17 17 16
22 13 8 8 12 10 52 12 20 18 20 34 28 19 6 1 56 43 44 32 40 46 51 53 51 52 49 48 47 45 42 38 34 33 30 28 27 12 16 16 14 15 15 18
16 13 8 8 9 10 4 35 55 19 20 37 31 26 26 24 3 18 35 31 22 10 50 50 53 53 52 50 50 47 44 41 37 35 31 30 20 18 19 14 15 18 14 13
14 6 17 12 6 14 30 53 55 16 5 19 28 30 30 23 16 21 25 26 26 8 55 50 54 54 54 52 52 48 45 42 39 35 34 30 28 27 25 11 14 21 18 14
6 7 5 7 5 7 40 26 19 5 17 33 32 29 26 22 20 23 24 23 23 12 38 53 54 54 56 55 54 48 47 42 40 38 36 35 30 25 20 21 23 21 16 10
5 12 9 10 8 16 46 27 29 34 35 39 37 31 29 23 23 19 18 19 22 17 6 48 52 55 57 57 56 49 47 45 43 41 41 39 34 32 22 26 25 19 17 15
17 19 9 14 21 33 29 43 45 37 37 31 41 29 28 22 19 17 12 13 17 19 23 38 54 56 58 58 55 50 49 46 46 47 47 41 41 33 29 26 24 21 22 17
8 16 17 4 11 16 34 37 33 29 22 26 27 28 23 17 16 18 13 11 16 19 26 29 54 57 57 59 56 54 51 49 49 50 49 45 43 35 35 33 24 23 24 23
12 12 12 10 24 19 29 39 35 32 18 19 21 27 25 19 17 20 21 13 10 16 22 28 50 57 56 58 57 57 54 54 56 55 53 49 47 44 39 39 36 23 27 23
Wind_Direction_500mb
224 218 223 220 221 240 237 240 246 253 252 247 254 261 266 276 274 261 269 267 268 262 265 260 263 279 251 250 247 246 228 211 215 216 201 200 200 211 218 219 228 233 239 244
230 219 225 232 228 234 242 251 253 262 265 260 261 257 259 248 252 261 264 243 255 280 289 282 276 239 246 250 249 235 220 214 207 206 196 195 199 220 211 225 235 243 241 260
224 237 225 235 234 235 238 238 245 256 265 266 268 269 270 268 270 265 258 270 258 259 278 281 274 227 235 235 234 209 191 195 199 193 178 196 195 199 200 203 219 252 253 258
248 243 242 227 237 231 242 233 243 249 251 257 254 269 256 262 264 257 255 255 259 252 257 255 246 202 204 208 195 185 187 196 177 181 186 192 189 205 229 233 217 228 254 279
243 247 234 239 238 228 245 244 248 247 251 261 254 259 267 269 268 269 276 267 261 253 261 257 192 183 174 180 174 179 184 162 173 176 197 190 182 213 211 224 244 268 266 271
252 252 254 247 243 248 247 240 251 258 257 247 243 242 264 258 263 270 270 262 249 256 241 238 157 156 155 161 166 172 164 160 186 170 183 183 203 182 181 218 237 268 290 286
249 244 252 250 253 234 237 236 234 236 235 241 244 241 255 265 266 272 273 267 269 260 252 144 148 150 154 162 165 167 163 178 173 172 186 181 195 210 218 245 261 280 288 292
277 269 230 235 239 236 225 232 228 223 226 241 240 252 260 254 258 254 282 233 241 237 131 137 150 154 156 162 165 166 167 168 167 175 171 176 182 160 215 250 287 269 274 264
321 287 259 226 244 239 234 221 235 249 240 245 255 243 236 243 245 241 239 234 235 140 139 148 153 157 161 164 167 168 165 166 169 169 170 170 179 181 269 301 300 250 303 128
295 288 277 271 218 241 236 228 223 230 232 246 236 240 253 186 225 226 196 222 201 143 143 153 156 160 161 165 166 167 166 170 169 171 171 162 185 191 237 287 285 171 126 143
250 222 274 282 239 216 227 227 221 241 225 236 246 264 295 83 171 174 195 196 189 146 152 155 158 160 161 164 166 166 167 170 170 171 165 178 178 162 240 311 144 152 140 159
299 278 265 266 271 246 233 226 230 218 218 228 247 238 68 134 229 175 260 180 151 151 156 157 159 161 162 165 166 168 171 170 171 168 164 173 180 198 251 143 137 137 139 143
336 261 261 258 267 258 255 224 233 237 237 219 232 250 143 148 208 216 181 149 146 150 156 159 160 164 164 167 166 169 171 170 168 169 171 173 189 199 149 150 128 138 148 142
292 258 262 260 309 337 312 240 230 222 207 227 220 192 198 180 189 177 137 130 142 154 157 159 162 166 168 167 168 168 169 171 169 168 172 174 185 140 133 143 140 147 152 143
173 277 285 259 248 285 298 286 240 224 198 217 226 226 219 165 173 112 121 141 148 156 162 160 168 166 168 168 169 167 170 169 168 164 171 164 174 148 135 123 137 138 152 145
230 261 298 275 246 279 300 285 277 219 201 216 239 176 44 97 112 128 147 156 161 161 163 164 170 167 169 169 169 169 171 167 167 162 166 162 142 169 142 143 161 149 159 170
266 289 322 255 231 301 281 243 249 245 209 209 204 194 130 210 98 120 148 159 162 160 164 168 172 169 171 171 173 171 170 167 166 160 158 154 160 174 154 157 155 156 157 160
263 287 294 10 76 278 278 237 249 223 197 205 102 317 136 173 106 45 55 172 169 166 167 167 172 169 171 173 173 170 168 167 166 161 161 160 152 152 159 170 183 166 167 163
226 248 281 238 191 315 301 351 294 206 136 357 177 205 168 130 99 48 33 34 165 169 167 168 171 169 172 174 174 172 168 169 167 164 164 170 152 134 150 166 165 146 142 172
194 222 237 310 260 231 85 329 320 39 82 17 5 47 46 351 109 41 19 14 20 161 164 165 169 170 173 175 174 173 170 172 172 167 165 161 159 135 145 144 147 153 161 170
217 221 249 271 237 294 332 327 318 173 78 33 31 32 26 27 17 345 5 4 347 317 164 167 170 171 174 176 176 176 173 176 174 167 166 162 156 147 164 152 137 141 129 128
317 236 273 232 195 251 313 346 52 334 67 41 43 31 21 12 353 352 358 342 328 324 158 160 167 172 175 179 180 179 177 176 174 167 166 165 165 160 165 140 134 131 114 131
327 3 316 359 75 18 320 21 37 30 48 33 21 19 15 10 5 355 334 312 304 300 208 166 171 173 177 182 183 181 180 178 175 171 168 171 159 177 162 154 150 142 146 134
342 7 327 346 8 357 16 352 19 29 33 19 5 14 8 360 351 338 297 277 266 260 243 183 172 175 176 184 185 182 181 180 177 172 172 173 161 181 160 163 152 145 165 173
287 334 323 123 22 340 356 359 358 357 20 12 3 350 352 351 350 337 307 270 248 237 228 209 176 179 181 184 185 182 183 181 180 174 177 177 172 182 165 163 180 177 170 193
323 344 0 340 353 318 329 332 352 346 358 350 353 337 338 356 357 337 334 319 277 238 232 215 183 182 183 186 188 185 185 184 182 177 179 181 181 180 175 179 179 173 181 182
Wind_Speed_850mb
53 33 48 81 61 59 55 62 66 58 55 57 51 51 57 48 53 52 56 47 58 74 65 51 48 63 35 41 48 50 46 54 58 47 43 44 44 44 40 33 29 30 33 36
38 56 76 44 64 62 67 63 61 58 55 48 46 53 52 45 44 52 51 52 52 64 52 44 45 35 32 34 35 37 41 47 52 46 43 41 41 28 27 27 29 32 32 35
46 75 45 58 60 60 62 62 56 62 50 54 47 51 49 49 55 54 55 64 50 51 66 80 50 31 32 26 26 27 34 46 48 44 41 33 33 23 33 33 25 34 35 32
48 52 63 60 67 60 59 57 57 56 46 40 38 38 49 39 43 40 50 50 52 52 71 65 41 37 29 23 24 30 40 40 44 37 38 41 33 29 24 19 20 16 16 32
67 44 54 63 73 59 69 43 53 55 50 42 47 29 57 34 35 32 26 40 50 54 55 31 38 39 28 28 30 35 37 45 38 46 34 35 29 21 12 13 19 28 34 33
57 66 57 58 53 65 52 51 57 52 38 37 53 38 59 37 37 34 33 48 51 42 43 46 42 40 38 33 37 37 41 41 45 44 30 26 22 17 17 15 16 22 30 20
47 55 62 57 58 57 61 45 33 37 34 43 33 38 47 42 37 36 36 39 43 36 43 58 53 46 43 43 42 43 49 43 39 32 28 26 22 25 20 15 19 22 17 13
27 38 56 48 66 54 57 50 32 51 35 38 43 53 40 42 43 50 40 28 35 49 44 52 47 48 48 48 46 45 45 36 34 29 22 18 13 3 3 17 16 11 10 7
15 31 55 59 58 56 59 56 63 45 43 37 32 35 60 54 40 29 14 31 41 44 48 46 47 50 53 51 49 47 40 35 33 27 22 16 9 9 3 13 13 8 2 6
10 28 46 54 57 66 63 43 50 38 51 48 39 45 27 23 29 25 26 18 34 50 50 47 51 53 53 51 48 42 38 36 32 26 19 15 8 6 9 13 6 4 14 12
17 17 37 45 51 55 47 51 47 43 36 32 29 27 25 5 19 12 19 35 37 52 50 54 53 53 51 49 45 43 37 33 30 25 18 15 8 8 8 12 6 8 22 10
30 13 32 46 41 42 57 50 49 39 49 33 26 29 11 5 9 11 21 43 58 53 53 56 56 54 51 48 44 40 37 33 29 25 19 15 8 12 4 2 2 10 21 19
12 12 22 37 35 40 39 56 49 41 22 38 33 31 14 12 15 22 21 42 60 58 57 57 57 54 51 47 42 38 35 33 28 25 21 14 12 8 5 8 7 16 25 21
6 14 30 21 14 30 16 47 62 52 34 38 39 18 11 15 16 9 34 57 56 57 61 59 57 55 50 47 41 38 34 31 29 26 21 15 10 9 9 9 10 16 30 23
4 16 35 41 26 30 42 58 58 58 48 43 37 36 27 25 21 26 30 47 51 55 58 58 57 55 51 46 42 37 35 32 29 26 25 15 8 15 12 13 15 16 27 23
9 9 31 29 29 20 45 61 51 58 53 53 43 28 22 23 35 33 30 39 47 54 55 57 54 53 51 47 43 40 37 34 29 27 23 15 19 19 14 14 14 16 18 27
30 11 16 17 11 15 36 47 43 44 50 52 34 12 37 16 16 22 34 41 45 52 54 55 52 51 49 46 44 43 39 34 32 29 26 19 18 16 18 16 12 18 15 13
27 23 11 5 16 9 29 30 41 45 36 46 22 5 23 31 23 47 18 46 48 52 52 53 52 51 50 45 45 42 40 36 33 31 29 21 22 16 20 19 13 17 17 16
22 13 8 8 12 10 52 12 20 18 20 34 28 19 6 1 56 43 44 32 40 46 51 53 51 52 49 48 47 45 42 38 34 33 30 28 27 12 16 16 14 15 15 18
16 13 8 8 9 10 4 35 55 19 20 37 31 26 26 24 3 18 35 31 22 10 50 50 53 53 52 50 50 47 44 41 37 35 31 30 20 18 19 14 15 18 14 13
14 6 17 12 6 14 30 53 55 16 5 19 28 30 30 23 16 21 25 26 26 8 55 50 54 54 54 52 52 48 45 42 39 35 34 30 28 27 25 11 14 21 18 14
6 7 5 7 5 7 40 26 19 5 17 33 32 29 26 22 20 23 24 23 23 12 38 53 54 54 56 55 54 48 47 42 40 38 36 35 30 25 20 21 23 21 16 10
5 12 9 10 8 16 46 27 29 34 35 39 37 31 29 23 23 19 18 19 22 17 6 48 52 55 57 57 56 49 47 45 43 41 41 39 34 32 22 26 25 19 17 15
17 19 9 14 21 33 29 43 45 37 37 31 41 29 28 22 19 17 12 13 17 19 23 38 54 56 58 58 55 50 49 46 46 47 47 41 41 33 29 26 24 21 22 17
8 16 17 4 11 16 34 37 33 29 22 26 27 28 23 17 16 18 13 11 16 19 26 29 54 57 57 59 56 54 51 49 49 50 49 45 43 35 35 33 24 23 24 23
12 12 12 10 24 19 29 39 35 32 18 19 21 27 25 19 17 20 21 13 10 16 22 28 50 57 56 58 57 57 54 54 56 55 53 49 47 44 39 39 36 23 27 23
Wind_Direction_850mb
224 218 223 220 221 240 237 240 246 253 252 247 254 261 266 276 274 261 269 267 268 262 265 260 263 279 251 250 247 246 228 211 215 216 201 200 200 211 218 219 228 233 239 244
230 219 225 232 228 234 242 251 253 262 265 260 261 257 259 248 252 261 264 243 255 280 289 282 276 239 246 250 249 235 220 214 207 206 196 195 199 220 211 225 235 243 241 260
224 237 225 235 234 235 238 238 245 256 265 266 268 269 270 268 270 265 258 270 258 259 278 281 274 227 235 235 234 209 191 195 199 193 178 196 195 199 200 203 219 252 253 258
248 243 242 227 237 231 242 233 243 249 251 257 254 269 256 262 264 257 255 255 259 252 257 255 246 202 204 208 195 185 187 196 177 181 186 192 189 205 229 233 217 228 254 279
243 247 234 239 238 228 245 244 248 247 251 261 254 259 267 269 268 269 276 267 261 253 261 257 192 183 174 180 174 179 184 162 173 176 197 190 182 213 211 224 244 268 266 271
252 252 254 247 243 248 247 240 251 258 257 247 243 242 264 258 263 270 270 262 249 256 241 238 157 156 155 161 166 172 164 160 186 170 183 183 203 182 181 218 237 268 290 286
249 244 252 250 253 234 237 236 234 236 235 241 244 241 255 265 266 272 273 267 269 260 252 144 148 150 154 162 165 167 163 178 173 172 186 181 195 210 218 245 261 280 288 292
277 269 230 235 239 236 225 232 228 223 226 241 240 252 260 254 258 254 282 233 241 237 131 137 150 154 156 162 165 166 167 168 167 175 171 176 182 160 215 250 287 269 274 264
321 287 259 226 244 239 234 221 235 249 240 245 255 243 236 243 245 241 239 234 235 140 139 148 153 157 161 164 167 168 165 166 169 169 170 170 179 181 269 301 300 250 303 128
295 288 277 271 218 241 236 228 223 230 232 246 236 240 253 186 225 226 196 222 201 143 143 153 156 160 161 165 166 167 166 170 169 171 171 162 185 191 237 287 285 171 126 143
250 222 274 282 239 216 227 227 221 241 225 236 246 264 295 83 171 174 195 196 189 146 152 155 158 160 161 164 166 166 167 170 170 171 165 178 178 162 240 311 144 152 140 159
299 278 265 266 271 246 233 226 230 218 218 228 247 238 68 134 229 175 260 180 151 151 156 157 159 161 162 165 166 168 171 170 171 168 164 173 180 198 251 143 137 137 139 143
336 261 261 258 267 258 255 224 233 237 237 219 232 250 143 148 208 216 181 149 146 150 156 159 160 164 164 167 166 169 171 170 168 169 171 173 189 199 149 150 128 138 148 142
292 258 262 260 309 337 312 240 230 222 207 227 220 192 198 180 189 177 137 130 142 154 157 159 162 166 168 167 168 168 169 171 169 168 172 174 185 140 133 143 140 147 152 143
173 277 285 259 248 285 298 286 240 224 198 217 226 226 219 165 173 112 121 141 148 156 162 160 168 166 168 168 169 167 170 169 168 164 171 164 174 148 135 123 137 138 152 145
230 261 298 275 246 279 300 285 277 219 201 216 239 176 44 97 112 128 147 156 161 161 163 164 170 167 169 169 169 169 171 167 167 162 166 162 142 169 142 143 161 149 159 170
266 289 322 255 231 301 281 243 249 245 209 209 204 194 130 210 98 120 148 159 162 160 164 168 172 169 171 171 173 171 170 167 166 160 158 154 160 174 154 157 155 156 157 160
263 287 294 10 76 278 278 237 249 223 197 205 102 317 136 173 106 45 55 172 169 166 167 167 172 169 171 173 173 170 168 167 166 161 161 160 152 152 159 170 183 166 167 163
226 248 281 238 191 315 301 351 294 206 136 357 177 205 168 130 99 48 33 34 165 169 167 168 171 169 172 174 174 172 168 169 167 164 164 170 152 134 150 166 165 146 142 172
194 222 237 310 260 231 85 329 320 39 82 17 5 47 46 351 109 41 19 14 20 161 164 165 169 170 173 175 174 173 170 172 172 167 165 161 159 135 145 144 147 153 161 170
217 221 249 271 237 294 332 327 318 173 78 33 31 32 26 27 17 345 5 4 347 317 164 167 170 171 174 176 176 176 173 176 174 167 166 162 156 147 164 152 137 141 129 128
317 236 273 232 195 251 313 346 52 334 67 41 43 31 21 12 353 352 358 342 328 324 158 160 167 172 175 179 180 179 177 176 174 167 166 165 165 160 165 140 134 131 114 131
327 3 316 359 75 18 320 21 37 30 48 33 21 19 15 10 5 355 334 312 304 300 208 166 171 173 177 182 183 181 180 178 175 171 168 171 159 177 162 154 150 142 146 134
342 7 327 346 8 357 16 352 19 29 33 19 5 14 8 360 351 338 297 277 266 260 243 183 172 175 176 184 185 182 181 180 177 172 172 173 161 181 160 163 152 145 165 173
287 334 323 123 22 340 356 359 358 357 20 12 3 350 352 351 350 337 307 270 248 237 228 209 176 179 181 184 185 182 183 181 180 174 177 177 172 182 165 163 180 177 170 193
323 344 0 340 353 318 329 332 352 346 358 350 353 337 338 356 357 337 334 319 277 238 232 215 183 182 183 186 188 185 185 184 182 177 179 181 181 180 175 179 179 173 181 182